LFSTLIBP

Guest
Details From LFST - Entzheim
To LIBP - Pescara
Flight Number -
Tags Generated
Created
Modified
Stats Distance 459 nm / 851 km
Max Altitude 0 ft / 0 m
Waypoints 4
Social Downloads 3
Likes 0
Share VATSIM

Download

Looking for another format? Having issues loading an existing format? Contact us
Advertisement - Login to hide

Notes

Generated

Route

LFST ADOSA PES LIBP

ID Type Via Altitude Latitude Longitude Leg Dist Tot Dist Heading (true) Name
O LFST APT - 0 ft / 0 m 48.53118˚ 7.61607˚ - 0 nm - -
ADOSA FIX - 0 ft / 0 m 45.64444˚ 11.02639˚ 222 nm 222 nm 140° / 142° -
PES VOR - 0 ft / 0 m 42.43611˚ 14.18444˚ 235 nm 458 nm 144° / 146° PESCARA VOR-DME
O LIBP APT - 0 ft / 0 m 42.42261˚ 14.17399˚ 0 nm 459 nm 210° / 210° -

Altitude Profile

Advertisement - Login to hide

Weather


0- 5 10 15 20 25 30 35+ Temperature / ° C

Clouds and Precipitation
Forecast for 2018-05-22 18:00 UTC. Updated an hour ago

Ground ~20,000 ft ~40,000 ft Winds

LFST

Details ICAO LFST (SXB)
Name Entzheim
Region France
Timezone Europe/Paris (UTC+2.0)
Stats Elevation 504 ft / 154 m (AMSL)
Location 48.538335° 7.628265°
Runways 1
Magnetic Variation 2.159° E

METAR

LFST 221830Z AUTO VRB02KT CAVOK 20/13 Q1012 NOSIG

Decode

TAF

TAF LFST 221700Z 2218/2318 34005KT CAVOK PROB30 TEMPO 2302/2306 BKN005 TEMPO 2310/2318 FEW050CB PROB30 TEMPO 2312/2318 VRB10G20KT 3000 TSRA SCT050CB

Decode

Departure Runways

ID Width Length Bearing (true) Bearing (mag) Surface Threshold Offset Overrun Length
05 148 ft / 45 m 7,899 ft / 2,408 m 48.60° 46.44° Asphalt 0 ft / 0 m 860 ft / 262 m
23 148 ft / 45 m 7,899 ft / 2,408 m 228.62° 226.46° Asphalt 0 ft / 0 m 902 ft / 275 m

LIBP

Details ICAO LIBP (PSR)
Name PESCARA
Region Italy
Timezone Europe/Rome (UTC+2.0)
Stats Elevation 48 ft / 15 m (AMSL)
Location 42.431257° 14.183030°
Runways 1
Magnetic Variation 3.427° E

METAR

LIBP 221750Z VRB02KT 9999 SCT035 BKN090 18/17 Q1015

Decode

TAF

TAF LIBP 221700Z 2218/2318 VRB05KT 9999 SCT050 BECMG 2215/2218 VRB05KT TEMPO 2315/2218 TSRA 03010KT

Decode

Destination Runways

ID Width Length Bearing (true) Bearing (mag) Surface Threshold Offset Overrun Length
04 148 ft / 45 m 7,943 ft / 2,421 m 37.19° 33.76° Asphalt 344 ft / 105 m 0 ft / 0 m
22 148 ft / 45 m 7,943 ft / 2,421 m 217.21° 213.78° Asphalt 617 ft / 188 m 0 ft / 0 m

Approach Navaids

Runway Type Ident Frequency Range Bearing (true) Bearing (mag) Slope Elevation
22 Localiser IPS 110.70 MHz 18 nm / 33 km 217.39° 213.96° - 48 ft / 15 m (AMSL)
22 Glidescope IPS 110.70 MHz 10 nm / 19 km 217.20° 213.77° 3.00° 48 ft / 15 m (AMSL)
22 DME IPS 110.70 MHz 18 nm / 33 km - - - 48 ft / 15 m (AMSL)